Location: Peterborough
(44.3091°N, 78.3197°W)
Time: 04:35:01
(UTC-04:00)

Courier 1B Rocket - All Passes

Search period start: 02 April 2023 00:00
Search period end: 12 April 2023 00:00
Orbit: 920 x 1202 km, 28.3° (Epoch: 01 April)

Date Brightness Start Highest point End Pass type
(mag) Time Alt. Az. Time Alt. Az. Time Alt. Az.
02 Apr - 16:47:15 10° S 16:49:56 12° SSE 16:52:35 10° SE daylight
02 Apr - 18:37:05 10° SW 18:42:24 21° S 18:47:32 10° SE daylight
02 Apr - 20:29:42 10° SW 20:34:56 21° S 20:39:57 10° SE visible
02 Apr - 22:24:31 10° SW 22:27:15 12° SSW 22:29:55 10° S visible
03 Apr - 17:36:29 10° SSW 17:41:29 19° SSE 17:46:21 10° SE daylight
03 Apr - 19:28:29 10° SW 19:34:03 22° S 19:39:23 10° SE daylight
03 Apr - 21:22:17 10° SW 21:26:29 16° SSW 21:30:32 10° SSE visible
04 Apr - 16:36:13 10° SSW 16:40:34 16° SSE 16:44:51 10° SE daylight
04 Apr - 18:27:26 10° SW 18:33:07 22° S 18:38:36 10° SE daylight
04 Apr - 20:20:36 10° SW 20:25:39 19° SSW 20:30:30 10° SSE visible
05 Apr - 15:36:39 10° S 15:39:40 13° SSE 15:42:41 10° SE daylight
05 Apr - 17:26:36 10° SW 17:32:09 21° S 17:37:35 10° SE daylight
05 Apr - 19:19:12 10° SW 19:24:45 22° S 19:30:07 10° SE daylight
05 Apr - 21:13:53 10° SW 21:17:09 13° SSW 21:20:18 10° S visible
06 Apr - 16:26:01 10° SSW 16:31:12 19° SSE 16:36:20 10° SE daylight
06 Apr - 18:18:00 10° SW 18:23:49 23° S 18:29:28 10° SE daylight
06 Apr - 20:11:45 10° SW 20:16:20 17° SSW 20:20:45 10° SSE visible
07 Apr - 15:25:49 10° SSW 15:30:16 16° SSE 15:34:44 10° SE daylight
07 Apr - 17:17:00 10° SW 17:22:50 23° S 17:28:35 10° SE daylight
07 Apr - 19:10:07 10° SW 19:15:26 20° SSW 19:20:37 10° SSE daylight
08 Apr - 14:26:18 10° S 14:29:23 13° SSE 14:32:29 10° SE daylight
08 Apr - 16:16:13 10° SW 16:21:52 22° S 16:27:28 10° SE daylight
08 Apr - 18:08:45 10° SW 18:14:29 23° S 18:20:07 10° SE daylight
08 Apr - 20:03:19 10° SW 20:06:57 14° SSW 20:10:31 10° S daylight
09 Apr - 15:15:43 10° SSW 15:20:54 19° SSE 15:26:07 10° SE daylight
09 Apr - 17:07:37 10° SW 17:13:31 24° S 17:19:22 10° SE daylight
09 Apr - 19:01:16 10° SW 19:06:05 18° SSW 19:10:48 10° SSE daylight
10 Apr - 14:15:37 10° SSW 14:19:59 16° SSE 14:24:25 10° SE daylight
10 Apr - 16:06:41 10° SW 16:12:31 23° S 16:18:23 10° SE daylight
10 Apr - 17:59:42 10° SW 18:05:09 21° SSW 18:10:32 10° SSE daylight
10 Apr - 19:56:11 10° SW 19:57:32 10° SSW 19:58:52 10° SSW daylight
11 Apr - 13:16:15 10° S 13:19:08 12° SSE 13:22:03 10° SE daylight
11 Apr - 15:06:00 10° SW 15:11:33 22° S 15:17:11 10° SE daylight
11 Apr - 16:58:26 10° SW 17:04:11 23° S 17:09:56 10° SE daylight
11 Apr - 18:52:51 10° SW 18:56:42 14° SSW 19:00:29 10° S daylight
